Time,TemperatureF,DewpointF,PressureIn,WindDirection,WindDirectionDegrees,WindSpeedMPH,WindSpeedGustMPH,Humidity,HourlyPrecipIn,Conditions,Clouds,dailyrainin,SoftwareType,DateUTC
2013-01-14 00:00:00,39.7,28.9,30.15,North,10,2.0,13.0,65,0.00,,,0.00,LWC V2.11 B50,2013-01-14 06:00:00,
2013-01-14 00:05:00,39.7,28.5,30.15,North,5,4.0,13.0,64,0.00,,,0.00,LWC V2.11 B50,2013-01-14 06:05:00,
2013-01-14 00:10:00,39.6,28.4,30.15,NNE,17,4.0,11.0,64,0.00,,,0.00,LWC V2.11 B50,2013-01-14 06:10:00,
2013-01-14 00:15:00,39.6,28.4,30.16,NNE,31,3.0,14.0,64,0.00,,,0.00,LWC V2.11 B50,2013-01-14 06:15:00,
2013-01-14 00:20:00,39.5,28.0,30.16,North,351,2.0,12.0,63,0.00,,,0.00,LWC V2.11 B50,2013-01-14 06:20:00,
2013-01-14 00:25:00,39.4,27.9,30.16,North,355,6.0,12.0,63,0.00,,,0.00,LWC V2.11 B50,2013-01-14 06:25:00,
2013-01-14 00:30:00,39.3,28.2,30.16,North,5,2.0,12.0,64,0.00,,,0.00,LWC V2.11 B50,2013-01-14 06:30:00,
2013-01-14 00:35:00,39.3,27.8,30.16,North,11,3.0,10.0,63,0.00,,,0.00,LWC V2.11 B50,2013-01-14 06:35:00,
2013-01-14 00:40:00,39.2,28.1,30.16,NNE,15,3.0,8.0,64,0.00,,,0.00,LWC V2.11 B50,2013-01-14 06:40:00,
2013-01-14 00:45:00,39.1,28.0,30.16,North,11,3.0,11.0,64,0.00,,,0.00,LWC V2.11 B50,2013-01-14 06:45:00,
2013-01-14 00:50:00,39.0,27.5,30.17,NNW,340,2.0,13.0,63,0.00,,,0.00,LWC V2.11 B50,2013-01-14 06:50:00,
2013-01-14 00:55:00,38.9,27.8,30.17,NNW,346,4.0,10.0,64,0.00,,,0.00,LWC V2.11 B50,2013-01-14 06:55:00,
2013-01-14 01:00:00,38.8,27.7,30.17,NNW,348,6.0,11.0,64,0.00,,,0.00,LWC V2.11 B50,2013-01-14 07:00:00,
2013-01-14 01:05:00,38.7,27.6,30.17,North,0,7.0,11.0,64,0.00,,,0.00,LWC V2.11 B50,2013-01-14 07:05:00,
2013-01-14 01:10:00,38.7,27.2,30.17,NW,325,4.0,10.0,63,0.00,,,0.00,LWC V2.11 B50,2013-01-14 07:10:00,
2013-01-14 01:15:00,38.6,27.1,30.17,NNW,334,6.0,11.0,63,0.00,,,0.00,LWC V2.11 B50,2013-01-14 07:15:00,
2013-01-14 01:20:00,38.5,27.4,30.18,NNW,342,5.0,9.0,64,0.00,,,0.00,LWC V2.11 B50,2013-01-14 07:20:00,
2013-01-14 01:25:00,38.4,26.9,30.18,NNW,339,10.0,13.0,63,0.00,,,0.00,LWC V2.11 B50,2013-01-14 07:25:00,
2013-01-14 01:30:00,38.4,26.9,30.18,NNW,331,6.0,13.0,63,0.00,,,0.00,LWC V2.11 B50,2013-01-14 07:30:00,
2013-01-14 01:35:00,38.2,27.1,30.18,NNW,329,8.0,10.0,64,0.00,,,0.00,LWC V2.11 B50,2013-01-14 07:35:00,
2013-01-14 01:40:00,38.1,27.0,30.18,North,5,2.0,8.0,64,0.00,,,0.00,LWC V2.11 B50,2013-01-14 07:40:00,
2013-01-14 01:45:00,38.2,27.1,30.18,NNW,333,8.0,8.0,64,0.00,,,0.00,LWC V2.11 B50,2013-01-14 07:45:00,
2013-01-14 01:50:00,38.1,26.6,30.18,NNW,328,6.0,11.0,63,0.00,,,0.00,LWC V2.11 B50,2013-01-14 07:50:00,
2013-01-14 01:55:00,38.1,26.6,30.17,North,355,4.0,10.0,63,0.00,,,0.00,LWC V2.11 B50,2013-01-14 07:55:00,
2013-01-14 02:00:00,38.1,27.0,30.18,North,5,10.0,10.0,64,0.00,,,0.00,LWC V2.11 B50,2013-01-14 08:00:00,
2013-01-14 02:05:00,38.1,26.6,30.17,NW,321,5.0,10.0,63,0.00,,,0.00,LWC V2.11 B50,2013-01-14 08:05:00,
2013-01-14 02:10:00,38.1,26.6,30.17,NNW,346,7.0,13.0,63,0.00,,,0.00,LWC V2.11 B50,2013-01-14 08:10:00,
2013-01-14 02:15:00,38.0,26.5,30.18,NNE,31,5.0,11.0,63,0.00,,,0.00,LWC V2.11 B50,2013-01-14 08:15:00,
2013-01-14 02:21:00,38.0,26.5,30.18,NNE,24,9.0,11.0,63,0.00,,,0.00,LWC V2.11 B50,2013-01-14 08:21:00,
2013-01-14 02:26:00,38.0,26.5,30.19,North,5,5.0,11.0,63,0.00,,,0.00,LWC V2.11 B50,2013-01-14 08:26:00,
2013-01-14 02:31:00,38.0,26.5,30.18,NNW,340,2.0,10.0,63,0.00,,,0.00,LWC V2.11 B50,2013-01-14 08:31:00,
2013-01-14 02:36:00,37.9,26.4,30.19,NNW,344,6.0,9.0,63,0.00,,,0.00,LWC V2.11 B50,2013-01-14 08:36:00,
2013-01-14 02:41:00,37.9,26.1,30.19,North,0,6.0,12.0,62,0.00,,,0.00,LWC V2.11 B50,2013-01-14 08:41:00,
2013-01-14 02:46:00,37.9,26.4,30.19,North,355,13.0,13.0,63,0.00,,,0.00,LWC V2.11 B50,2013-01-14 08:46:00,
2013-01-14 02:51:00,37.8,26.0,30.18,North,355,7.0,9.0,62,0.00,,,0.00,LWC V2.11 B50,2013-01-14 08:51:00,
2013-01-14 02:56:00,37.7,25.9,30.19,NNW,347,4.0,13.0,62,0.00,,,0.00,LWC V2.11 B50,2013-01-14 08:56:00,
2013-01-14 03:01:00,37.7,26.3,30.19,NNW,347,8.0,12.0,63,0.00,,,0.00,LWC V2.11 B50,2013-01-14 09:01:00,
2013-01-14 03:06:00,37.7,25.9,30.19,North,355,4.0,11.0,62,0.00,,,0.00,LWC V2.11 B50,2013-01-14 09:06:00,
2013-01-14 03:11:00,37.5,25.7,30.19,NNW,342,12.0,12.0,62,0.00,,,0.00,LWC V2.11 B50,2013-01-14 09:11:00,
2013-01-14 03:16:00,37.5,25.7,30.19,NW,309,8.0,11.0,62,0.00,,,0.00,LWC V2.11 B50,2013-01-14 09:16:00,
2013-01-14 03:21:00,37.5,25.7,30.19,NW,326,2.0,11.0,62,0.00,,,0.00,LWC V2.11 B50,2013-01-14 09:21:00,
2013-01-14 03:26:00,37.5,25.7,30.19,North,0,6.0,15.0,62,0.00,,,0.00,LWC V2.11 B50,2013-01-14 09:26:00,
2013-01-14 03:31:00,37.4,25.6,30.18,North,11,2.0,10.0,62,0.00,,,0.00,LWC V2.11 B50,2013-01-14 09:31:00,
2013-01-14 03:36:00,37.4,25.6,30.18,North,5,7.0,18.0,62,0.00,,,0.00,LWC V2.11 B50,2013-01-14 09:36:00,
2013-01-14 03:41:00,37.3,25.5,30.18,North,5,9.0,14.0,62,0.00,,,0.00,LWC V2.11 B50,2013-01-14 09:41:00,
2013-01-14 03:46:00,37.1,25.3,30.18,NW,325,13.0,18.0,62,0.00,,,0.00,LWC V2.11 B50,2013-01-14 09:46:00,
2013-01-14 03:51:00,37.1,25.3,30.18,NNW,348,12.0,18.0,62,0.00,,,0.00,LWC V2.11 B50,2013-01-14 09:51:00,
2013-01-14 03:56:00,37.0,25.2,30.18,North,355,10.0,14.0,62,0.00,,,0.00,LWC V2.11 B50,2013-01-14 09:56:00,
2013-01-14 04:01:00,36.9,25.5,30.18,NNW,330,8.0,13.0,63,0.00,,,0.00,LWC V2.11 B50,2013-01-14 10:01:00,
2013-01-14 04:06:00,36.9,25.5,30.18,North,355,8.0,13.0,63,0.00,,,0.00,LWC V2.11 B50,2013-01-14 10:06:00,
2013-01-14 04:11:00,36.8,25.8,30.17,North,350,10.0,10.0,64,0.00,,,0.00,LWC V2.11 B50,2013-01-14 10:11:00,
2013-01-14 04:16:00,36.8,25.8,30.17,NNW,346,8.0,13.0,64,0.00,,,0.00,LWC V2.11 B50,2013-01-14 10:16:00,
2013-01-14 04:21:00,36.7,25.7,30.17,North,5,7.0,11.0,64,0.00,,,0.00,LWC V2.11 B50,2013-01-14 10:21:00,
2013-01-14 04:26:00,36.7,25.3,30.17,North,0,5.0,20.0,63,0.00,,,0.00,LWC V2.11 B50,2013-01-14 10:26:00,
2013-01-14 04:31:00,36.7,25.3,30.17,North,0,6.0,21.0,63,0.00,,,0.00,LWC V2.11 B50,2013-01-14 10:31:00,
2013-01-14 04:36:00,36.7,25.3,30.17,NNW,340,8.0,8.0,63,0.00,,,0.00,LWC V2.11 B50,2013-01-14 10:36:00,
2013-01-14 04:41:00,36.7,25.3,30.17,North,355,5.0,15.0,63,0.00,,,0.00,LWC V2.11 B50,2013-01-14 10:41:00,
2013-01-14 04:46:00,36.7,25.7,30.17,North,0,8.0,14.0,64,0.00,,,0.00,LWC V2.11 B50,2013-01-14 10:46:00,
2013-01-14 04:52:00,36.6,25.2,30.17,NNW,346,8.0,14.0,63,0.00,,,0.00,LWC V2.11 B50,2013-01-14 10:52:00,
2013-01-14 04:57:00,36.6,25.2,30.17,NNW,331,10.0,13.0,63,0.00,,,0.00,LWC V2.11 B50,2013-01-14 10:57:00,
2013-01-14 05:02:00,36.6,25.6,30.17,North,5,10.0,16.0,64,0.00,,,0.00,LWC V2.11 B50,2013-01-14 11:02:00,
2013-01-14 05:07:00,36.6,25.6,30.17,NNW,327,8.0,14.0,64,0.00,,,0.00,LWC V2.11 B50,2013-01-14 11:07:00,
2013-01-14 05:12:00,36.6,25.6,30.17,NNW,334,9.0,13.0,64,0.00,,,0.00,LWC V2.11 B50,2013-01-14 11:12:00,
2013-01-14 05:17:00,36.6,26.0,30.17,NNW,340,8.0,8.0,65,0.00,,,0.00,LWC V2.11 B50,2013-01-14 11:17:00,
2013-01-14 05:22:00,36.5,25.5,30.17,NW,321,9.0,12.0,64,0.00,,,0.00,LWC V2.11 B50,2013-01-14 11:22:00,
2013-01-14 05:27:00,36.5,25.9,30.17,NNW,338,8.0,13.0,65,0.00,,,0.00,LWC V2.11 B50,2013-01-14 11:27:00,
2013-01-14 05:32:00,36.5,25.9,30.17,North,5,11.0,11.0,65,0.00,,,0.00,LWC V2.11 B50,2013-01-14 11:32:00,
2013-01-14 05:37:00,36.5,25.9,30.17,NNW,340,9.0,12.0,65,0.00,,,0.00,LWC V2.11 B50,2013-01-14 11:37:00,
2013-01-14 05:42:00,36.4,25.8,30.17,NW,319,7.0,12.0,65,0.00,,,0.00,LWC V2.11 B50,2013-01-14 11:42:00,
2013-01-14 05:47:00,36.5,25.9,30.17,NNE,15,3.0,15.0,65,0.00,,,0.00,LWC V2.11 B50,2013-01-14 11:47:00,
2013-01-14 05:52:00,36.5,26.2,30.17,North,0,6.0,12.0,66,0.00,,,0.00,LWC V2.11 B50,2013-01-14 11:52:00,
2013-01-14 05:57:00,36.5,26.2,30.17,NW,324,9.0,9.0,66,0.00,,,0.00,LWC V2.11 B50,2013-01-14 11:57:00,
2013-01-14 06:02:00,36.5,26.2,30.17,NNW,336,11.0,12.0,66,0.00,,,0.00,LWC V2.11 B50,2013-01-14 12:02:00,
2013-01-14 06:07:00,36.5,26.2,30.18,NNW,348,7.0,9.0,66,0.00,,,0.00,LWC V2.11 B50,2013-01-14 12:07:00,
2013-01-14 06:12:00,36.6,26.3,30.18,North,5,8.0,15.0,66,0.00,,,0.00,LWC V2.11 B50,2013-01-14 12:12:00,
2013-01-14 06:17:00,36.6,26.3,30.18,North,0,5.0,12.0,66,0.00,,,0.00,LWC V2.11 B50,2013-01-14 12:17:00,
2013-01-14 06:22:00,36.6,26.3,30.18,North,0,2.0,10.0,66,0.00,,,0.00,LWC V2.11 B50,2013-01-14 12:22:00,
2013-01-14 06:27:00,36.6,26.3,30.18,North,0,1.0,10.0,66,0.00,,,0.00,LWC V2.11 B50,2013-01-14 12:27:00,
2013-01-14 06:32:00,36.7,26.4,30.18,North,355,7.0,14.0,66,0.00,,,0.00,LWC V2.11 B50,2013-01-14 12:32:00,
2013-01-14 06:37:00,36.6,26.3,30.19,North,355,5.0,12.0,66,0.00,,,0.00,LWC V2.11 B50,2013-01-14 12:37:00,
2013-01-14 06:42:00,36.6,26.3,30.19,North,0,5.0,14.0,66,0.00,,,0.00,LWC V2.11 B50,2013-01-14 12:42:00,
2013-01-14 06:47:00,36.4,26.1,30.19,NNE,24,3.0,11.0,66,0.00,,,0.00,LWC V2.11 B50,2013-01-14 12:47:00,
2013-01-14 06:52:00,36.5,26.6,30.19,NNW,337,2.0,9.0,67,0.00,,,0.00,LWC V2.11 B50,2013-01-14 12:52:00,
2013-01-14 06:57:00,36.5,26.6,30.19,North,11,5.0,10.0,67,0.00,,,0.00,LWC V2.11 B50,2013-01-14 12:57:00,
2013-01-14 07:02:00,36.4,26.5,30.20,North,5,5.0,7.0,67,0.00,,,0.00,LWC V2.11 B50,2013-01-14 13:02:00,
2013-01-14 07:07:00,36.5,26.6,30.20,NNW,335,6.0,10.0,67,0.00,,,0.00,LWC V2.11 B50,2013-01-14 13:07:00,
2013-01-14 07:12:00,36.5,26.6,30.21,NNW,347,10.0,11.0,67,0.00,,,0.00,LWC V2.11 B50,2013-01-14 13:12:00,
2013-01-14 07:18:00,36.4,26.9,30.21,NNW,333,11.0,11.0,68,0.00,,,0.00,LWC V2.11 B50,2013-01-14 13:18:00,
2013-01-14 07:23:00,36.4,26.9,30.21,NNE,12,4.0,10.0,68,0.00,,,0.00,LWC V2.11 B50,2013-01-14 13:23:00,
2013-01-14 07:28:00,36.5,27.0,30.20,North,5,4.0,11.0,68,0.00,,,0.00,LWC V2.11 B50,2013-01-14 13:28:00,
2013-01-14 07:33:00,36.4,26.9,30.20,NNW,340,11.0,11.0,68,0.00,,,0.00,LWC V2.11 B50,2013-01-14 13:33:00,
2013-01-14 07:38:00,36.4,27.2,30.21,NNE,18,11.0,13.0,69,0.00,,,0.00,LWC V2.11 B50,2013-01-14 13:38:00,
2013-01-14 07:43:00,36.4,27.2,30.21,North,355,7.0,8.0,69,0.00,,,0.00,LWC V2.11 B50,2013-01-14 13:43:00,
2013-01-14 07:48:00,36.4,27.2,30.21,NNW,329,10.0,16.0,69,0.00,,,0.00,LWC V2.11 B50,2013-01-14 13:48:00,
2013-01-14 07:53:00,36.4,27.6,30.21,NNW,333,4.0,9.0,70,0.00,,,0.00,LWC V2.11 B50,2013-01-14 13:53:00,
2013-01-14 07:58:00,36.3,27.5,30.22,NNE,24,6.0,9.0,70,0.00,,,0.00,LWC V2.11 B50,2013-01-14 13:58:00,
2013-01-14 08:03:00,36.3,27.5,30.22,NNE,24,5.0,12.0,70,0.00,,,0.00,LWC V2.11 B50,2013-01-14 14:03:00,
2013-01-14 08:08:00,36.2,27.4,30.22,North,355,7.0,12.0,70,0.00,,,0.00,LWC V2.11 B50,2013-01-14 14:08:00,
2013-01-14 08:13:00,36.3,27.5,30.23,North,5,1.0,11.0,70,0.00,,,0.00,LWC V2.11 B50,2013-01-14 14:13:00,
2013-01-14 08:18:00,36.2,27.4,30.23,NNE,15,3.0,8.0,70,0.00,,,0.00,LWC V2.11 B50,2013-01-14 14:18:00,
2013-01-14 08:23:00,36.3,27.8,30.23,North,355,6.0,7.0,71,0.00,,,0.00,LWC V2.11 B50,2013-01-14 14:23:00,
2013-01-14 08:28:00,36.3,27.8,30.23,North,5,5.0,8.0,71,0.00,,,0.00,LWC V2.11 B50,2013-01-14 14:28:00,
2013-01-14 08:33:00,36.4,27.9,30.23,NNW,331,6.0,10.0,71,0.00,,,0.00,LWC V2.11 B50,2013-01-14 14:33:00,
2013-01-14 08:38:00,36.4,27.9,30.23,NNW,347,4.0,4.0,71,0.00,,,0.00,LWC V2.11 B50,2013-01-14 14:38:00,
2013-01-14 08:43:00,36.6,28.1,30.24,NNW,346,5.0,10.0,71,0.00,,,0.00,LWC V2.11 B50,2013-01-14 14:43:00,
2013-01-14 08:48:00,36.7,28.2,30.24,NNE,16,4.0,10.0,71,0.00,,,0.00,LWC V2.11 B50,2013-01-14 14:48:00,
2013-01-14 08:53:00,36.8,28.3,30.24,NNE,32,6.0,10.0,71,0.00,,,0.00,LWC V2.11 B50,2013-01-14 14:53:00,
2013-01-14 08:58:00,36.9,28.4,30.24,North,9,2.0,7.0,71,0.00,,,0.00,LWC V2.11 B50,2013-01-14 14:58:00,
2013-01-14 09:03:00,37.1,28.6,30.24,NNE,19,8.0,8.0,71,0.00,,,0.00,LWC V2.11 B50,2013-01-14 15:03:00,
2013-01-14 09:08:00,37.3,28.8,30.24,North,355,6.0,7.0,71,0.00,,,0.00,LWC V2.11 B50,2013-01-14 15:08:00,
2013-01-14 09:13:00,37.6,29.1,30.24,NE,41,3.0,8.0,71,0.00,,,0.00,LWC V2.11 B50,2013-01-14 15:13:00,
2013-01-14 09:18:00,37.7,28.8,30.24,NNW,346,7.0,11.0,70,0.00,,,0.00,LWC V2.11 B50,2013-01-14 15:18:00,
2013-01-14 09:23:00,37.6,28.7,30.24,NNE,16,8.0,12.0,70,0.00,,,0.00,LWC V2.11 B50,2013-01-14 15:23:00,
2013-01-14 09:28:00,37.8,28.9,30.24,North,9,11.0,18.0,70,0.00,,,0.00,LWC V2.11 B50,2013-01-14 15:28:00,
2013-01-14 09:33:00,38.2,29.3,30.24,North,5,11.0,15.0,70,0.00,,,0.00,LWC V2.11 B50,2013-01-14 15:33:00,
2013-01-14 09:38:00,38.5,28.9,30.24,NE,41,7.0,15.0,68,0.00,,,0.00,LWC V2.11 B50,2013-01-14 15:38:00,
2013-01-14 09:43:00,38.7,29.4,30.24,NNE,20,2.0,11.0,69,0.00,,,0.00,LWC V2.11 B50,2013-01-14 15:43:00,
2013-01-14 09:49:00,39.0,29.3,30.24,North,5,4.0,13.0,68,0.00,,,0.00,LWC V2.11 B50,2013-01-14 15:49:00,
2013-01-14 09:54:00,39.1,29.1,30.24,NNE,27,11.0,17.0,67,0.00,,,0.00,LWC V2.11 B50,2013-01-14 15:54:00,
2013-01-14 09:59:00,39.1,29.4,30.24,NNE,24,4.0,7.0,68,0.00,,,0.00,LWC V2.11 B50,2013-01-14 15:59:00,
2013-01-14 10:04:00,39.2,29.5,30.24,NNE,30,5.0,13.0,68,0.00,,,0.00,LWC V2.11 B50,2013-01-14 16:04:00,
2013-01-14 10:09:00,39.1,29.4,30.24,NE,46,1.0,11.0,68,0.00,,,0.00,LWC V2.11 B50,2013-01-14 16:09:00,
2013-01-14 10:14:00,39.3,29.3,30.25,NNE,15,5.0,10.0,67,0.00,,,0.00,LWC V2.11 B50,2013-01-14 16:14:00,
2013-01-14 10:19:00,39.7,29.7,30.25,NNW,348,4.0,8.0,67,0.00,,,0.00,LWC V2.11 B50,2013-01-14 16:19:00,
2013-01-14 10:24:00,40.1,29.7,30.25,NNW,334,9.0,12.0,66,0.00,,,0.00,LWC V2.11 B50,2013-01-14 16:24:00,
2013-01-14 10:29:00,40.3,29.9,30.25,North,5,7.0,8.0,66,0.00,,,0.00,LWC V2.11 B50,2013-01-14 16:29:00,
2013-01-14 10:34:00,40.8,30.3,30.25,NE,35,6.0,7.0,66,0.00,,,0.00,LWC V2.11 B50,2013-01-14 16:34:00,
2013-01-14 10:39:00,40.9,29.7,30.25,North,355,10.0,14.0,64,0.00,,,0.00,LWC V2.11 B50,2013-01-14 16:39:00,
2013-01-14 10:44:00,40.5,29.7,30.24,NNE,17,5.0,13.0,65,0.00,,,0.00,LWC V2.11 B50,2013-01-14 16:44:00,
2013-01-14 10:49:00,40.8,30.0,30.24,NNE,31,11.0,11.0,65,0.00,,,0.00,LWC V2.11 B50,2013-01-14 16:49:00,
2013-01-14 10:54:00,41.1,29.9,30.24,WNW,296,9.0,11.0,64,0.00,,,0.00,LWC V2.11 B50,2013-01-14 16:54:00,
2013-01-14 10:59:00,41.3,29.7,30.23,ENE,62,6.0,9.0,63,0.00,,,0.00,LWC V2.11 B50,2013-01-14 16:59:00,
2013-01-14 11:04:00,42.1,30.4,30.22,North,5,4.0,9.0,63,0.00,,,0.00,LWC V2.11 B50,2013-01-14 17:04:00,
2013-01-14 11:09:00,42.6,30.1,30.22,NW,307,5.0,9.0,61,0.00,,,0.00,LWC V2.11 B50,2013-01-14 17:09:00,
2013-01-14 11:14:00,42.4,30.3,30.22,NE,50,8.0,8.0,62,0.00,,,0.00,LWC V2.11 B50,2013-01-14 17:14:00,
2013-01-14 11:19:00,42.4,30.3,30.22,North,0,9.0,9.0,62,0.00,,,0.00,LWC V2.11 B50,2013-01-14 17:19:00,
2013-01-14 11:24:00,42.0,29.9,30.21,North,350,4.0,14.0,62,0.00,,,0.00,LWC V2.11 B50,2013-01-14 17:24:00,
2013-01-14 11:29:00,42.6,30.9,30.21,NNW,340,8.0,12.0,63,0.00,,,0.00,LWC V2.11 B50,2013-01-14 17:29:00,
2013-01-14 11:34:00,42.7,30.6,30.21,NNE,15,3.0,13.0,62,0.00,,,0.00,LWC V2.11 B50,2013-01-14 17:34:00,
2013-01-14 11:39:00,43.2,31.1,30.20,North,350,2.0,6.0,62,0.00,,,0.00,LWC V2.11 B50,2013-01-14 17:39:00,
2013-01-14 11:44:00,43.3,30.8,30.20,NNW,333,9.0,10.0,61,0.00,,,0.00,LWC V2.11 B50,2013-01-14 17:44:00,
2013-01-14 11:49:00,43.3,30.8,30.20,North,355,10.0,10.0,61,0.00,,,0.00,LWC V2.11 B50,2013-01-14 17:49:00,
2013-01-14 11:54:00,44.0,31.4,30.20,North,350,4.0,9.0,61,0.00,,,0.00,LWC V2.11 B50,2013-01-14 17:54:00,
2013-01-14 11:59:00,44.6,31.6,30.19,North,11,7.0,14.0,60,0.00,,,0.00,LWC V2.11 B50,2013-01-14 17:59:00,
2013-01-14 12:04:00,44.6,31.2,30.19,NNE,32,4.0,11.0,59,0.00,,,0.00,LWC V2.11 B50,2013-01-14 18:04:00,
2013-01-14 12:09:00,44.7,31.3,30.19,NE,36,8.0,12.0,59,0.00,,,0.00,LWC V2.11 B50,2013-01-14 18:09:00,
2013-01-14 12:14:00,44.9,31.5,30.19,NNE,30,5.0,10.0,59,0.00,,,0.00,LWC V2.11 B50,2013-01-14 18:14:00,
2013-01-14 12:20:00,44.9,31.5,30.18,NNE,31,6.0,8.0,59,0.00,,,0.00,LWC V2.11 B50,2013-01-14 18:20:00,
2013-01-14 12:25:00,45.4,31.9,30.17,NW,323,11.0,11.0,59,0.00,,,0.00,LWC V2.11 B50,2013-01-14 18:25:00,
2013-01-14 12:30:00,45.8,32.3,30.17,North,355,2.0,11.0,59,0.00,,,0.00,LWC V2.11 B50,2013-01-14 18:30:00,
2013-01-14 12:35:00,46.4,32.0,30.17,NE,44,10.0,12.0,57,0.00,,,0.00,LWC V2.11 B50,2013-01-14 18:35:00,
2013-01-14 12:40:00,46.5,32.1,30.17,NNW,346,7.0,7.0,57,0.00,,,0.00,LWC V2.11 B50,2013-01-14 18:40:00,
2013-01-14 12:45:00,46.8,32.4,30.16,ENE,69,2.0,11.0,57,0.00,,,0.00,LWC V2.11 B50,2013-01-14 18:45:00,
2013-01-14 12:50:00,46.8,31.9,30.16,NE,55,3.0,11.0,56,0.00,,,0.00,LWC V2.11 B50,2013-01-14 18:50:00,
2013-01-14 12:55:00,47.2,32.8,30.15,North,10,3.0,11.0,57,0.00,,,0.00,LWC V2.11 B50,2013-01-14 18:55:00,
2013-01-14 13:00:00,47.8,32.4,30.15,NNE,15,4.0,9.0,55,0.00,,,0.00,LWC V2.11 B50,2013-01-14 19:00:00,
2013-01-14 13:05:00,47.7,32.8,30.15,NE,55,2.0,10.0,56,0.00,,,0.00,LWC V2.11 B50,2013-01-14 19:05:00,
2013-01-14 13:10:00,47.8,32.9,30.14,NNW,336,7.0,7.0,56,0.00,,,0.00,LWC V2.11 B50,2013-01-14 19:10:00,
2013-01-14 13:15:00,47.6,32.2,30.14,NE,42,3.0,15.0,55,0.00,,,0.00,LWC V2.11 B50,2013-01-14 19:15:00,
2013-01-14 13:20:00,47.5,32.6,30.14,NE,41,1.0,6.0,56,0.00,,,0.00,LWC V2.11 B50,2013-01-14 19:20:00,
2013-01-14 13:25:00,47.8,32.9,30.14,North,351,6.0,10.0,56,0.00,,,0.00,LWC V2.11 B50,2013-01-14 19:25:00,
2013-01-14 13:30:00,48.2,33.2,30.14,NE,45,3.0,11.0,56,0.00,,,0.00,LWC V2.11 B50,2013-01-14 19:30:00,
2013-01-14 13:35:00,48.3,33.8,30.14,NE,54,3.0,4.0,57,0.00,,,0.00,LWC V2.11 B50,2013-01-14 19:35:00,
2013-01-14 13:40:00,48.7,33.7,30.13,NNE,19,3.0,8.0,56,0.00,,,0.00,LWC V2.11 B50,2013-01-14 19:40:00,
2013-01-14 13:45:00,48.8,33.4,30.13,NNE,20,4.0,10.0,55,0.00,,,0.00,LWC V2.11 B50,2013-01-14 19:45:00,
2013-01-14 13:50:00,49.2,33.3,30.13,North,5,4.0,7.0,54,0.00,,,0.00,LWC V2.11 B50,2013-01-14 19:50:00,
2013-01-14 13:55:00,49.2,33.3,30.13,North,5,5.0,9.0,54,0.00,,,0.00,LWC V2.11 B50,2013-01-14 19:55:00,
2013-01-14 14:00:00,48.8,33.4,30.13,NNE,15,5.0,7.0,55,0.00,,,0.00,LWC V2.11 B50,2013-01-14 20:00:00,
2013-01-14 14:05:00,48.6,33.2,30.12,North,0,7.0,12.0,55,0.00,,,0.00,LWC V2.11 B50,2013-01-14 20:05:00,
2013-01-14 14:10:00,48.5,33.1,30.13,NNE,32,3.0,12.0,55,0.00,,,0.00,LWC V2.11 B50,2013-01-14 20:10:00,
2013-01-14 14:15:00,48.6,33.2,30.12,North,5,2.0,11.0,55,0.00,,,0.00,LWC V2.11 B50,2013-01-14 20:15:00,
2013-01-14 14:20:00,48.5,32.6,30.12,North,5,4.0,6.0,54,0.00,,,0.00,LWC V2.11 B50,2013-01-14 20:20:00,
2013-01-14 14:25:00,48.5,33.1,30.12,NNE,26,4.0,7.0,55,0.00,,,0.00,LWC V2.11 B50,2013-01-14 20:25:00,
2013-01-14 14:30:00,48.8,33.4,30.12,NNE,24,3.0,7.0,55,0.00,,,0.00,LWC V2.11 B50,2013-01-14 20:30:00,
2013-01-14 14:35:00,49.0,33.1,30.12,NE,40,2.0,11.0,54,0.00,,,0.00,LWC V2.11 B50,2013-01-14 20:35:00,
2013-01-14 14:40:00,48.9,33.5,30.12,NNW,342,6.0,9.0,55,0.00,,,0.00,LWC V2.11 B50,2013-01-14 20:40:00,
2013-01-14 14:45:00,49.3,33.4,30.12,NNE,17,4.0,11.0,54,0.00,,,0.00,LWC V2.11 B50,2013-01-14 20:45:00,
2013-01-14 14:51:00,49.6,33.6,30.11,NE,34,4.0,8.0,54,0.00,,,0.00,LWC V2.11 B50,2013-01-14 20:51:00,
2013-01-14 14:56:00,49.8,33.8,30.11,NE,44,3.0,9.0,54,0.00,,,0.00,LWC V2.11 B50,2013-01-14 20:56:00,
2013-01-14 15:01:00,49.7,33.3,30.11,ENE,57,7.0,11.0,53,0.00,,,0.00,LWC V2.11 B50,2013-01-14 21:01:00,
2013-01-14 15:06:00,49.9,33.9,30.11,ENE,63,7.0,12.0,54,0.00,,,0.00,LWC V2.11 B50,2013-01-14 21:06:00,
2013-01-14 15:11:00,50.2,33.7,30.11,NNE,19,9.0,9.0,53,0.00,,,0.00,LWC V2.11 B50,2013-01-14 21:11:00,
2013-01-14 15:16:00,50.0,33.5,30.11,East,91,9.0,9.0,53,0.00,,,0.00,LWC V2.11 B50,2013-01-14 21:16:00,
2013-01-14 15:21:00,50.1,33.6,30.11,NNE,26,8.0,11.0,53,0.00,,,0.00,LWC V2.11 B50,2013-01-14 21:21:00,
2013-01-14 15:26:00,50.1,34.1,30.11,ENE,60,6.0,7.0,54,0.00,,,0.00,LWC V2.11 B50,2013-01-14 21:26:00,
2013-01-14 15:31:00,50.2,33.7,30.11,NE,51,7.0,12.0,53,0.00,,,0.00,LWC V2.11 B50,2013-01-14 21:31:00,
2013-01-14 15:36:00,49.9,33.5,30.11,ENE,74,6.0,13.0,53,0.00,,,0.00,LWC V2.11 B50,2013-01-14 21:36:00,
2013-01-14 15:41:00,49.7,33.7,30.11,East,79,4.0,12.0,54,0.00,,,0.00,LWC V2.11 B50,2013-01-14 21:41:00,
2013-01-14 15:46:00,49.9,33.9,30.12,East,82,3.0,10.0,54,0.00,,,0.00,LWC V2.11 B50,2013-01-14 21:46:00,
2013-01-14 15:51:00,49.9,33.9,30.12,NE,56,5.0,13.0,54,0.00,,,0.00,LWC V2.11 B50,2013-01-14 21:51:00,
2013-01-14 15:56:00,49.8,33.8,30.11,NNW,348,5.0,8.0,54,0.00,,,0.00,LWC V2.11 B50,2013-01-14 21:56:00,
2013-01-14 16:01:00,49.8,33.8,30.12,North,0,7.0,10.0,54,0.00,,,0.00,LWC V2.11 B50,2013-01-14 22:01:00,
2013-01-14 16:06:00,49.8,33.8,30.12,NNE,25,6.0,17.0,54,0.00,,,0.00,LWC V2.11 B50,2013-01-14 22:06:00,
2013-01-14 16:11:00,49.7,33.7,30.12,North,5,8.0,13.0,54,0.00,,,0.00,LWC V2.11 B50,2013-01-14 22:11:00,
2013-01-14 16:16:00,49.5,34.0,30.13,NNE,33,6.0,10.0,55,0.00,,,0.00,LWC V2.11 B50,2013-01-14 22:16:00,
2013-01-14 16:21:00,49.3,33.8,30.13,North,10,6.0,10.0,55,0.00,,,0.00,LWC V2.11 B50,2013-01-14 22:21:00,
2013-01-14 16:26:00,49.2,33.7,30.13,NNE,17,4.0,10.0,55,0.00,,,0.00,LWC V2.11 B50,2013-01-14 22:26:00,
2013-01-14 16:31:00,49.2,34.2,30.13,NNW,346,9.0,9.0,56,0.00,,,0.00,LWC V2.11 B50,2013-01-14 22:31:00,
2013-01-14 16:36:00,49.1,34.1,30.13,ENE,68,7.0,9.0,56,0.00,,,0.00,LWC V2.11 B50,2013-01-14 22:36:00,
2013-01-14 16:41:00,48.8,33.8,30.12,NE,38,6.0,11.0,56,0.00,,,0.00,LWC V2.11 B50,2013-01-14 22:41:00,
2013-01-14 16:46:00,48.7,33.7,30.12,NE,53,3.0,4.0,56,0.00,,,0.00,LWC V2.11 B50,2013-01-14 22:46:00,
2013-01-14 16:51:00,48.5,34.0,30.13,NE,49,6.0,9.0,57,0.00,,,0.00,LWC V2.11 B50,2013-01-14 22:51:00,
2013-01-14 16:56:00,48.5,33.5,30.13,NNE,22,2.0,9.0,56,0.00,,,0.00,LWC V2.11 B50,2013-01-14 22:56:00,
2013-01-14 17:01:00,48.2,33.7,30.13,North,9,12.0,12.0,57,0.00,,,0.00,LWC V2.11 B50,2013-01-14 23:01:00,
2013-01-14 17:06:00,48.1,33.6,30.13,NE,49,4.0,10.0,57,0.00,,,0.00,LWC V2.11 B50,2013-01-14 23:06:00,
2013-01-14 17:11:00,48.0,33.5,30.14,North,5,2.0,8.0,57,0.00,,,0.00,LWC V2.11 B50,2013-01-14 23:11:00,
2013-01-14 17:16:00,47.9,33.8,30.14,ENE,57,6.0,8.0,58,0.00,,,0.00,LWC V2.11 B50,2013-01-14 23:16:00,
2013-01-14 17:22:00,47.7,33.7,30.14,North,355,7.0,7.0,58,0.00,,,0.00,LWC V2.11 B50,2013-01-14 23:22:00,
2013-01-14 17:27:00,47.5,33.5,30.14,NNE,27,4.0,11.0,58,0.00,,,0.00,LWC V2.11 B50,2013-01-14 23:27:00,
2013-01-14 17:32:00,47.3,33.7,30.14,NNE,20,2.0,8.0,59,0.00,,,0.00,LWC V2.11 B50,2013-01-14 23:32:00,
2013-01-14 17:37:00,47.0,33.4,30.14,NE,56,3.0,6.0,59,0.00,,,0.00,LWC V2.11 B50,2013-01-14 23:37:00,
2013-01-14 17:42:00,46.9,33.3,30.14,NE,34,2.0,8.0,59,0.00,,,0.00,LWC V2.11 B50,2013-01-14 23:42:00,
2013-01-14 17:47:00,46.8,33.7,30.14,North,0,4.0,9.0,60,0.00,,,0.00,LWC V2.11 B50,2013-01-14 23:47:00,
2013-01-14 17:52:00,46.7,33.6,30.14,NE,34,3.0,7.0,60,0.00,,,0.00,LWC V2.11 B50,2013-01-14 23:52:00,
2013-01-14 17:57:00,46.5,33.4,30.14,NNE,17,1.0,7.0,60,0.00,,,0.00,LWC V2.11 B50,2013-01-14 23:57:00,
2013-01-14 18:02:00,46.3,33.6,30.14,NNE,17,3.0,10.0,61,0.00,,,0.00,LWC V2.11 B50,2013-01-15 00:02:00,
2013-01-14 18:07:00,46.1,33.4,30.14,North,5,1.0,7.0,61,0.00,,,0.00,LWC V2.11 B50,2013-01-15 00:07:00,
2013-01-14 18:12:00,45.9,33.6,30.14,North,5,3.0,8.0,62,0.00,,,0.00,LWC V2.11 B50,2013-01-15 00:12:00,
2013-01-14 18:17:00,45.7,33.4,30.14,ENE,59,5.0,6.0,62,0.00,,,0.00,LWC V2.11 B50,2013-01-15 00:17:00,
2013-01-14 18:22:00,45.5,33.2,30.14,ENE,59,4.0,6.0,62,0.00,,,0.00,LWC V2.11 B50,2013-01-15 00:22:00,
2013-01-14 18:27:00,45.3,33.5,30.14,North,11,3.0,4.0,63,0.00,,,0.00,LWC V2.11 B50,2013-01-15 00:27:00,
2013-01-14 18:32:00,45.1,33.3,30.14,North,0,4.0,9.0,63,0.00,,,0.00,LWC V2.11 B50,2013-01-15 00:32:00,
2013-01-14 18:37:00,45.1,33.3,30.15,NNE,12,8.0,9.0,63,0.00,,,0.00,LWC V2.11 B50,2013-01-15 00:37:00,
2013-01-14 18:42:00,45.0,33.2,30.15,NE,38,3.0,7.0,63,0.00,,,0.00,LWC V2.11 B50,2013-01-15 00:42:00,
2013-01-14 18:47:00,44.7,33.3,30.15,NNE,15,3.0,6.0,64,0.00,,,0.00,LWC V2.11 B50,2013-01-15 00:47:00,
2013-01-14 18:52:00,44.6,33.2,30.15,NE,54,2.0,7.0,64,0.00,,,0.00,LWC V2.11 B50,2013-01-15 00:52:00,
2013-01-14 18:57:00,44.4,33.4,30.14,NE,40,6.0,6.0,65,0.00,,,0.00,LWC V2.11 B50,2013-01-15 00:57:00,
2013-01-14 19:02:00,44.2,33.2,30.15,NNW,340,6.0,7.0,65,0.00,,,0.00,LWC V2.11 B50,2013-01-15 01:02:00,
2013-01-14 19:07:00,44.1,33.1,30.14,NE,48,4.0,6.0,65,0.00,,,0.00,LWC V2.11 B50,2013-01-15 01:07:00,
2013-01-14 19:12:00,44.0,33.4,30.14,NNE,26,1.0,6.0,66,0.00,,,0.00,LWC V2.11 B50,2013-01-15 01:12:00,
2013-01-14 19:17:00,43.8,33.2,30.14,NNE,12,4.0,5.0,66,0.00,,,0.00,LWC V2.11 B50,2013-01-15 01:17:00,
2013-01-14 19:22:00,43.7,33.5,30.15,NNE,18,3.0,5.0,67,0.00,,,0.00,LWC V2.11 B50,2013-01-15 01:22:00,
2013-01-14 19:27:00,43.6,33.4,30.15,NNE,31,2.0,2.0,67,0.00,,,0.00,LWC V2.11 B50,2013-01-15 01:27:00,
2013-01-14 19:32:00,43.4,33.2,30.14,NNE,19,3.0,7.0,67,0.00,,,0.00,LWC V2.11 B50,2013-01-15 01:32:00,
2013-01-14 19:37:00,43.4,33.2,30.15,NNE,28,3.0,5.0,67,0.00,,,0.00,LWC V2.11 B50,2013-01-15 01:37:00,
2013-01-14 19:42:00,43.3,33.5,30.15,North,0,4.0,5.0,68,0.00,,,0.00,LWC V2.11 B50,2013-01-15 01:42:00,
2013-01-14 19:47:00,43.2,33.4,30.15,North,9,3.0,3.0,68,0.00,,,0.00,LWC V2.11 B50,2013-01-15 01:47:00,
2013-01-14 19:53:00,43.1,33.3,30.15,North,11,1.0,5.0,68,0.00,,,0.00,LWC V2.11 B50,2013-01-15 01:53:00,
2013-01-14 19:58:00,43.0,33.5,30.15,NNE,19,1.0,7.0,69,0.00,,,0.00,LWC V2.11 B50,2013-01-15 01:58:00,
2013-01-14 20:03:00,43.0,33.5,30.15,North,355,4.0,5.0,69,0.00,,,0.00,LWC V2.11 B50,2013-01-15 02:03:00,
2013-01-14 20:08:00,43.1,33.6,30.15,North,0,5.0,5.0,69,0.00,,,0.00,LWC V2.11 B50,2013-01-15 02:08:00,
2013-01-14 20:13:00,43.2,33.4,30.14,NNW,340,5.0,6.0,68,0.00,,,0.00,LWC V2.11 B50,2013-01-15 02:13:00,
2013-01-14 20:18:00,43.3,33.5,30.14,North,5,4.0,9.0,68,0.00,,,0.00,LWC V2.11 B50,2013-01-15 02:18:00,
2013-01-14 20:23:00,43.4,33.6,30.15,NNE,12,5.0,6.0,68,0.00,,,0.00,LWC V2.11 B50,2013-01-15 02:23:00,
2013-01-14 20:28:00,43.5,33.3,30.15,NNW,344,2.0,7.0,67,0.00,,,0.00,LWC V2.11 B50,2013-01-15 02:28:00,
2013-01-14 20:33:00,43.6,33.4,30.15,NE,38,1.0,7.0,67,0.00,,,0.00,LWC V2.11 B50,2013-01-15 02:33:00,
2013-01-14 20:38:00,43.6,33.4,30.15,NNE,12,6.0,9.0,67,0.00,,,0.00,LWC V2.11 B50,2013-01-15 02:38:00,
2013-01-14 20:43:00,43.7,33.5,30.15,North,355,5.0,9.0,67,0.00,,,0.00,LWC V2.11 B50,2013-01-15 02:43:00,
2013-01-14 20:48:00,43.7,33.5,30.15,North,5,4.0,9.0,67,0.00,,,0.00,LWC V2.11 B50,2013-01-15 02:48:00,
2013-01-14 20:53:00,43.7,33.5,30.15,NNE,29,6.0,7.0,67,0.00,,,0.00,LWC V2.11 B50,2013-01-15 02:53:00,
2013-01-14 20:58:00,43.7,33.1,30.14,NNW,348,1.0,10.0,66,0.00,,,0.00,LWC V2.11 B50,2013-01-15 02:58:00,
2013-01-14 21:03:00,43.7,33.1,30.15,North,355,4.0,10.0,66,0.00,,,0.00,LWC V2.11 B50,2013-01-15 03:03:00,
2013-01-14 21:08:00,43.8,33.2,30.14,NNE,13,1.0,10.0,66,0.00,,,0.00,LWC V2.11 B50,2013-01-15 03:08:00,
2013-01-14 21:13:00,43.8,33.2,30.14,NNE,19,5.0,10.0,66,0.00,,,0.00,LWC V2.11 B50,2013-01-15 03:13:00,
2013-01-14 21:18:00,43.8,33.2,30.14,North,9,3.0,11.0,66,0.00,,,0.00,LWC V2.11 B50,2013-01-15 03:18:00,
2013-01-14 21:25:00,43.8,33.2,30.14,North,10,4.0,7.0,66,0.00,,,0.00,LWC V2.11 B50,2013-01-15 03:25:00,
2013-01-14 21:30:00,43.8,33.2,30.14,NNE,13,2.0,8.0,66,0.00,,,0.00,LWC V2.11 B50,2013-01-15 03:30:00,
2013-01-14 21:35:00,43.8,33.2,30.14,NE,55,4.0,10.0,66,0.00,,,0.00,LWC V2.11 B50,2013-01-15 03:35:00,
2013-01-14 21:40:00,43.8,33.2,30.14,NNW,345,1.0,7.0,66,0.00,,,0.00,LWC V2.11 B50,2013-01-15 03:40:00,
2013-01-14 21:45:00,43.8,33.2,30.14,North,355,7.0,10.0,66,0.00,,,0.00,LWC V2.11 B50,2013-01-15 03:45:00,
2013-01-14 21:50:00,43.8,33.2,30.14,NE,40,8.0,8.0,66,0.00,,,0.00,LWC V2.11 B50,2013-01-15 03:50:00,
2013-01-14 21:55:00,43.8,33.2,30.14,NNE,16,13.0,13.0,66,0.00,,,0.00,LWC V2.11 B50,2013-01-15 03:55:00,
2013-01-14 22:00:00,43.8,33.2,30.14,North,355,4.0,7.0,66,0.00,,,0.00,LWC V2.11 B50,2013-01-15 04:00:00,
2013-01-14 22:05:00,43.8,33.2,30.14,NNE,26,2.0,9.0,66,0.00,,,0.00,LWC V2.11 B50,2013-01-15 04:05:00,
2013-01-14 22:10:00,43.8,33.2,30.13,NE,34,3.0,8.0,66,0.00,,,0.00,LWC V2.11 B50,2013-01-15 04:10:00,
2013-01-14 22:15:00,43.8,33.2,30.13,North,355,4.0,9.0,66,0.00,,,0.00,LWC V2.11 B50,2013-01-15 04:15:00,
2013-01-14 22:20:00,43.8,33.2,30.12,North,355,6.0,8.0,66,0.00,,,0.00,LWC V2.11 B50,2013-01-15 04:20:00,
2013-01-14 22:26:00,43.8,33.2,30.13,North,5,2.0,8.0,66,0.00,,,0.00,LWC V2.11 B50,2013-01-15 04:26:00,
2013-01-14 22:31:00,43.7,33.1,30.12,NNE,22,4.0,11.0,66,0.00,,,0.00,LWC V2.11 B50,2013-01-15 04:31:00,
2013-01-14 22:38:00,43.7,33.5,30.11,ENE,68,0.0,7.0,67,0.00,,,0.00,LWC V2.11 B50,2013-01-15 04:38:00,
2013-01-14 22:43:00,43.6,33.4,30.11,North,5,3.0,7.0,67,0.00,,,0.00,LWC V2.11 B50,2013-01-15 04:43:00,
2013-01-14 22:48:00,43.5,33.7,30.11,ENE,57,3.0,8.0,68,0.00,,,0.00,LWC V2.11 B50,2013-01-15 04:48:00,
2013-01-14 22:53:00,43.4,33.6,30.11,NNE,25,4.0,9.0,68,0.00,,,0.00,LWC V2.11 B50,2013-01-15 04:53:00,
2013-01-14 22:58:00,43.3,33.8,30.11,NNW,340,8.0,8.0,69,0.00,,,0.00,LWC V2.11 B50,2013-01-15 04:58:00,
2013-01-14 23:00:00,43.3,33.8,30.11,NE,37,8.0,12.0,69,0.00,,,0.00,LWC V2.11 B50,2013-01-15 05:00:00,
2013-01-14 23:01:00,43.3,33.8,30.11,NE,51,3.0,12.0,69,0.00,,,0.00,LWC V2.11 B50,2013-01-15 05:01:00,
2013-01-14 23:04:00,43.2,33.7,30.11,NNE,28,4.0,10.0,69,0.00,,,0.00,LWC V2.11 B50,2013-01-15 05:04:00,
2013-01-14 23:09:00,43.1,33.6,30.11,ENE,75,12.0,12.0,69,0.00,,,0.00,LWC V2.11 B50,2013-01-15 05:09:00,
2013-01-14 23:14:00,43.1,33.6,30.10,North,355,6.0,12.0,69,0.00,,,0.00,LWC V2.11 B50,2013-01-15 05:14:00,
2013-01-14 23:19:00,43.0,33.9,30.10,ENE,76,4.0,7.0,70,0.00,,,0.00,LWC V2.11 B50,2013-01-15 05:19:00,
2013-01-14 23:24:00,43.0,33.9,30.11,NNE,31,6.0,10.0,70,0.00,,,0.00,LWC V2.11 B50,2013-01-15 05:24:00,
2013-01-14 23:29:00,42.9,33.8,30.11,NNW,348,8.0,11.0,70,0.00,,,0.00,LWC V2.11 B50,2013-01-15 05:29:00,
2013-01-14 23:34:00,42.9,33.8,30.11,NNW,343,4.0,9.0,70,0.00,,,0.00,LWC V2.11 B50,2013-01-15 05:34:00,
2013-01-14 23:39:00,42.9,33.8,30.12,NNE,22,4.0,7.0,70,0.00,,,0.00,LWC V2.11 B50,2013-01-15 05:39:00,
2013-01-14 23:44:00,42.8,33.7,30.11,NNE,26,4.0,6.0,70,0.00,,,0.00,LWC V2.11 B50,2013-01-15 05:44:00,
2013-01-14 23:49:00,42.8,33.7,30.11,North,0,6.0,7.0,70,0.00,,,0.00,LWC V2.11 B50,2013-01-15 05:49:00,
2013-01-14 23:54:00,42.8,33.7,30.12,NE,46,4.0,10.0,70,0.00,,,0.00,LWC V2.11 B50,2013-01-15 05:54:00,
2013-01-14 23:59:00,42.7,33.6,30.11,NNW,344,5.0,7.0,70,0.00,,,0.00,LWC V2.11 B50,2013-01-15 05:59:00,